[[{"header":{"parameterUnit":"m.s-1","parameterCategory":1,"la1":30.2991,"la2":30.254,"lo1":-89.0895,"lo2":-89.0444,"dy":0.0017,"dx":0.0017,"nx":28,"ny":28,"refTime":"2025-08-09T03:00:00:Z","depth":0,"parameterNumber":2,"parameterNumberName":"U-component_of_WINDS"},"data":[0,0,0,0,0,0,0,0,0,0,0,0,0,0,0,0,0,0,0,0,0,0,0,0,0,0,0,0,0,0,0,0,0,0,0,0,0,0,0,0,0,0,0,0,0,0,0,0,0,0,0,0,0,0,0,0,0,0,-4.1813,-4.1814,0,-4.1864,-4.1865,-4.1866,-4.1712,-4.1708,-4.1703,-4.1699,-4.1755,-4.1761,-4.1767,0,0,0,0,0,0,0,0,0,0,0,0,0,-4.1585,-4.159,-4.1813,-4.1814,-4.1814,-4.1864,-4.1865,-4.1866,-4.1713,-4.1708,-4.1702,-4.1696,-4.1753,-4.176,-4.1767,0,0,0,0,0,0,0,0,0,0,0,0,0,-4.1665,-4.1592,-4.1813,-4.1744,-4.1738,-4.1864,-4.1865,-4.1866,-4.1714,-4.1707,-4.17,-4.1694,-4.1751,-4.1759,-4.1768,-4.1964,0,0,-4.1795,-4.1799,0,0,0,0,0,0,0,0,-4.1661,-4.1674,-4.1754,-4.1749,-4.1743,-4.1775,-4.1805,-4.1899,-4.1716,-4.1724,-4.1698,-4.169,-4.1768,-4.1775,-4.18,-4.1966,-4.1969,-4.1796,-4.1801,-4.1805,-4.1808,0,0,0,0,0,0,0,-4.1656,-4.1671,-4.1833,-4.1755,-4.1749,-4.1711,-4.1715,-4.1822,-4.1785,-4.1723,-4.1712,-4.172,-4.1763,-4.1792,-4.18,-4.197,-4.1796,-4.1803,-4.1809,-4.1812,-4.2298,-4.2305,0,0,0,0,0,0,-4.1658,-4.1667,-4.1832,-4.1835,-4.1684,-4.1721,-4.1725,-4.1772,-4.1783,-4.1778,-4.1725,-4.1712,-4.178,-4.179,-4.1801,-4.203,-4.1805,-4.1813,-4.1818,-4.229,-4.23,-4.2308,0,0,0,0,0,0,-4.1654,-4.1675,-4.183,-4.1748,-4.1765,-4.1733,-4.1786,-4.1776,-4.1804,-4.1785,-4.1778,-4.1761,-4.1775,-4.1789,-4.1924,-4.203,-4.1817,-4.1825,-4.2281,-4.2293,-4.2304,-4.2491,0,0,0,0,0,0,-4.1648,-4.1674,-4.1748,-4.1751,-4.177,-4.1951,-4.1793,-4.1783,-4.182,-4.1803,-4.1817,-4.1812,-4.177,-4.1912,-4.1933,-4.2038,-4.1832,-4.2272,-4.2287,-4.23,-4.2475,-4.2507,-4.2534,0,0,0,0,0,-4.1641,-4.1799,-4.1752,-4.1773,-4.1861,-4.1958,-4.1969,-4.1916,-4.1829,-4.1903,-4.189,-4.1812,-4.2015,-4.1927,-4.1949,-4.2059,-4.2265,-4.2282,-4.2299,-4.2461,-4.2501,-4.2534,0,0,0,0,0,0,-4.1811,-4.1798,-4.1746,-4.191,-4.1936,-4.1932,-4.2023,-4.1959,-4.2011,-4.1994,-4.1927,-4.1932,-4.2079,-4.2082,-4.1984,-4.2248,-4.2125,-4.2148,-4.2241,-4.2278,-4.2307,-4.2303,-4.1839,0,0,0,0,0,-4.1868,-4.1946,-4.1931,-4.2078,-4.2093,-4.2057,-4.2097,-4.2053,-4.2078,-4.2089,-4.2086,-4.2114,-4.2183,-4.2231,-4.2294,-4.2474,-4.2475,-4.2561,-4.2591,-4.2615,-4.2636,-4.2731,-4.2768,-4.2364,-4.2364,-4.2363,0,0,-4.1986,-4.1988,-4.2042,-4.2112,-4.2127,-4.221,-4.2067,-4.2161,-4.2223,-4.2103,-4.223,-4.2229,-4.2255,-4.2414,-4.2484,-4.2421,-4.2747,-4.2637,-4.2657,-4.2664,-4.2752,-4.279,-4.2825,-4.2376,-4.2373,-4.2372,0,0,-4.2243,-4.2253,-4.2375,-4.2393,-4.2416,-4.2391,-4.242,-4.2426,-4.242,-4.2545,-4.2457,-4.253,-4.2652,-4.2673,-4.2701,-4.2965,-4.2895,-4.2988,-4.3144,-4.3237,-4.3269,-4.3297,-4.3391,-4.3426,-4.3008,-4.3009,-4.3009,0,-4.2387,-4.2508,-4.2447,-4.2547,-4.258,-4.2474,-4.2598,-4.2618,-4.2662,-4.2688,-4.2617,-4.2766,-4.2777,-4.2938,-4.3003,-4.3029,-4.306,-4.2986,-4.3269,-4.3297,-4.3322,-4.3411,-4.3447,-4.302,-4.3018,-4.3017,-4.3016,0,-4.2684,-4.2769,-4.2865,-4.2908,-4.2952,-4.3064,-4.302,-4.3072,-4.3025,-4.3007,-4.3137,-4.3145,-4.3208,-4.3243,-4.3199,-4.3398,-4.3359,-4.328,-4.3155,-4.3373,-4.3455,-4.3489,-4.3036,-4.3032,-4.3028,-4.3026,0,0,-4.3051,-4.3057,-4.3094,-4.3112,-4.3129,-4.3195,-4.3301,-4.3361,-4.3407,-4.3441,-4.3529,-4.3633,-4.356,-4.3591,-4.3548,-4.363,-4.3839,-4.3541,-4.3541,-4.3596,-4.4059,-4.4118,-4.4158,-4.3792,-4.3798,-4.3803,-4.4056,0,-4.3304,-4.3485,-4.3433,-4.3615,-4.3693,-4.3593,-4.3686,-4.3707,-4.3693,-4.3758,-4.3742,-4.3817,-4.3715,-4.3733,-4.381,-4.3797,-4.3931,-4.3778,-4.3874,-4.3878,-4.387,-4.4201,-4.4264,-4.4503,-4.4088,-4.4094,-4.4098,0,-4.3623,-4.3668,-4.3858,-4.3861,-4.3892,-4.3976,-4.4026,-4.4089,-4.4111,-4.4095,-4.4129,-4.4069,-4.4175,-4.4049,-4.4193,-4.4091,-4.4126,-4.4126,-4.4134,-4.4141,-4.4001,-4.4217,-4.4578,-4.4614,-4.4148,-4.4144,-4.414,0,-4.3872,-4.3979,-4.4106,-4.4124,-4.4132,-4.4193,-4.42,-4.4214,-4.4253,-4.4297,-4.4322,-4.4379,-4.441,-4.4455,-4.4412,-4.4324,-4.4563,-4.4434,-4.4553,-4.4555,-4.4608,-4.4606,-4.498,-4.4632,-4.4632,-4.4631,-4.463,0,-4.4159,-4.428,-4.4217,-4.4296,-4.4427,-4.4366,-4.4498,-4.4493,-4.4507,-4.4583,-4.45,-4.4573,-4.4512,-4.458,-4.4547,-4.4672,-4.4687,-4.4677,-4.4667,-4.4684,-4.4686,-4.4707,-4.4689,-4.464,-4.4638,-4.4637,-4.4635,0,-4.4459,-4.4422,-4.4554,-4.455,-4.4551,-4.4649,-4.4645,-4.4717,-4.4696,-4.4794,-4.4813,-4.4781,-4.4857,-4.4818,-4.4898,-4.4875,-4.5036,-4.5004,-4.5028,-4.502,-4.5141,-4.513,-4.5542,-4.5593,-4.5213,-4.5217,-4.522,0,-4.4645,-4.4735,-4.474,-4.4784,-4.4795,-4.4868,-4.4906,-4.4849,-4.4893,-4.4924,-4.4993,-4.5061,-4.5113,-4.5238,-4.5223,-4.5283,-4.5251,-4.5391,-4.526,-4.5274,-4.5253,-4.5248,-4.5257,-4.5418,-4.5423,-4.5426,-4.5429,0,-4.4979,-4.4956,-4.5014,-4.5067,-4.5115,-4.5153,-4.5185,-4.5226,-4.517,-4.5224,-4.5299,-4.5339,-4.5418,-4.5487,-4.5539,-4.5545,-4.5479,-4.5471,-4.5501,-4.552,-4.553,-4.5526,-4.51,-4.5461,-4.5458,-4.5456,-4.5454,-4.5453,-4.5227,-4.5302,-4.5316,-4.5384,-4.5401,-4.5433,-4.55,-4.5487,-4.5549,-4.5608,-4.5571,-4.566,-4.5679,-4.5741,-4.5756,-4.5825,-4.577,-4.5814,-4.5826,-4.5838,-4.5854,-4.552,-4.5835,-4.5834,-4.5833,-4.5832,-4.5831,0,-4.5557,-4.556,-4.5623,-4.5669,-4.5723,-4.5653,-4.5684,-4.5734,-4.5812,-4.5835,-4.5887,-4.5973,-4.6039,-4.6029,-4.6089,-4.6146,-4.6117,-4.6164,-4.6159,-4.6162,-4.59,-4.5868,-4.6187,-4.6187,-4.6186,-4.6186,-4.6186,-4.6186,-4.5734,-4.5856,-4.5835,-4.5965,-4.5968,-4.6053,-4.6077,-4.6105,-4.6123,-4.6223,-4.6277,-4.6269,-4.6278,-4.6338,-4.6396,-4.6391,-4.6417,-4.6475,-4.646,-4.6216,-4.618,-4.6147,-4.6116,-4.6482,-4.6482,-4.6715,-4.6717,-4.6719]},{"header":{"parameterUnit":"m.s-1","parameterCategory":1,"la1":30.2991,"la2":30.254,"lo1":-89.0895,"lo2":-89.0444,"dy":0.0017,"dx":0.0017,"nx":28,"ny":28,"refTime":"2025-08-09T03:00:00:Z","depth":0,"parameterNumber":3,"parameterNumberName":"V-component_of_WINDS"},"data":[0,0,0,0,0,0,0,0,0,0,0,0,0,0,0,0,0,0,0,0,0,0,0,0,0,0,0,0,0,0,0,0,0,0,0,0,0,0,0,0,0,0,0,0,0,0,0,0,0,0,0,0,0,0,0,0,0,0,-2.1557,-2.1557,0,-2.1595,-2.1596,-2.1596,-2.1596,-2.1595,-2.1595,-2.1594,-2.1633,-2.1634,-2.1636,0,0,0,0,0,0,0,0,0,0,0,0,0,-2.1479,-2.1481,-2.1557,-2.1557,-2.1558,-2.1595,-2.1596,-2.1596,-2.1596,-2.1595,-2.1595,-2.1594,-2.1632,-2.1634,-2.1636,0,0,0,0,0,0,0,0,0,0,0,0,0,-2.1515,-2.1481,-2.1556,-2.1562,-2.1563,-2.1595,-2.1596,-2.1597,-2.1596,-2.1595,-2.1595,-2.1594,-2.1632,-2.1634,-2.1636,-2.1665,0,0,-2.1643,-2.1644,0,0,0,0,0,0,0,0,-2.1513,-2.1518,-2.1561,-2.1562,-2.1563,-2.159,-2.1583,-2.162,-2.1596,-2.1583,-2.1594,-2.1594,-2.1619,-2.1622,-2.1631,-2.1667,-2.1669,-2.1643,-2.1645,-2.1646,-2.1646,0,0,0,0,0,0,0,-2.151,-2.1516,-2.1572,-2.1561,-2.1562,-2.1561,-2.1566,-2.159,-2.1605,-2.1585,-2.1585,-2.1589,-2.162,-2.1629,-2.1632,-2.1669,-2.1643,-2.1645,-2.1647,-2.1647,-2.1728,-2.1729,0,0,0,0,0,0,-2.1507,-2.1514,-2.1571,-2.1573,-2.1535,-2.1563,-2.1568,-2.1582,-2.1605,-2.1608,-2.159,-2.1589,-2.1626,-2.163,-2.1634,-2.1668,-2.1646,-2.1648,-2.1649,-2.1728,-2.1729,-2.1729,0,0,0,0,0,0,-2.1505,-2.1512,-2.1569,-2.1544,-2.1551,-2.1566,-2.1581,-2.1583,-2.1593,-2.1609,-2.1611,-2.1597,-2.1625,-2.163,-2.1657,-2.1669,-2.1649,-2.1651,-2.1727,-2.1728,-2.1729,-2.1737,0,0,0,0,0,0,-2.1503,-2.1512,-2.1524,-2.1544,-2.1552,-2.1593,-2.1582,-2.1585,-2.1597,-2.1596,-2.1616,-2.1619,-2.1625,-2.1654,-2.1659,-2.1672,-2.1653,-2.1726,-2.1727,-2.1729,-2.1736,-2.1738,-2.174,0,0,0,0,0,-2.15,-2.1525,-2.1524,-2.1531,-2.1568,-2.1594,-2.1598,-2.1605,-2.1598,-2.1609,-2.1619,-2.1618,-2.1667,-2.1656,-2.1663,-2.1676,-2.1725,-2.1727,-2.1729,-2.1735,-2.1738,-2.174,0,0,0,0,0,0,-2.1506,-2.1527,-2.1527,-2.1559,-2.1574,-2.1593,-2.1609,-2.1609,-2.1626,-2.1625,-2.1632,-2.1637,-2.1663,-2.1672,-2.166,-2.1704,-2.1695,-2.1698,-2.1697,-2.17,-2.1703,-2.17,-2.1654,0,0,0,0,0,-2.151,-2.153,-2.1548,-2.1574,-2.1582,-2.1594,-2.1605,-2.1609,-2.1625,-2.1632,-2.1644,-2.1659,-2.1677,-2.1689,-2.1708,-2.1737,-2.174,-2.1749,-2.1751,-2.1753,-2.1756,-2.177,-2.1773,-2.1735,-2.1735,-2.1735,0,0,-2.1521,-2.1535,-2.1547,-2.1575,-2.1588,-2.1607,-2.1599,-2.1621,-2.1635,-2.1635,-2.166,-2.167,-2.1687,-2.1714,-2.1727,-2.1723,-2.1767,-2.1756,-2.1757,-2.1758,-2.1772,-2.1776,-2.1779,-2.1737,-2.1736,-2.1736,0,0,-2.1549,-2.1562,-2.1585,-2.1597,-2.1615,-2.1623,-2.1628,-2.1647,-2.1653,-2.1679,-2.1678,-2.1695,-2.1727,-2.1739,-2.1749,-2.1779,-2.1778,-2.1784,-2.1797,-2.181,-2.1813,-2.1816,-2.1825,-2.1829,-2.1787,-2.1787,-2.1787,0,-2.1559,-2.1589,-2.1596,-2.1617,-2.1628,-2.1629,-2.1651,-2.1662,-2.1686,-2.1693,-2.1688,-2.1727,-2.1739,-2.1768,-2.1775,-2.1784,-2.1789,-2.1782,-2.1813,-2.1815,-2.1818,-2.1827,-2.183,-2.1788,-2.1787,-2.1787,-2.1787,0,-2.1599,-2.162,-2.1635,-2.1658,-2.1671,-2.1692,-2.1701,-2.1714,-2.1716,-2.1723,-2.1748,-2.1762,-2.1782,-2.1789,-2.1792,-2.1818,-2.1815,-2.1811,-2.1802,-2.1822,-2.183,-2.1834,-2.1788,-2.1788,-2.1788,-2.1788,0,0,-2.1633,-2.1657,-2.1663,-2.1672,-2.1692,-2.1707,-2.1727,-2.1747,-2.1757,-2.1772,-2.1788,-2.1815,-2.1811,-2.1822,-2.1826,-2.1838,-2.1858,-2.1832,-2.1833,-2.1836,-2.1886,-2.1888,-2.1892,-2.1858,-2.1859,-2.1859,-2.1884,0,-2.1662,-2.1699,-2.1705,-2.1736,-2.1754,-2.1754,-2.1771,-2.1784,-2.1791,-2.1807,-2.1814,-2.1832,-2.1827,-2.1833,-2.1845,-2.1853,-2.1869,-2.1852,-2.1872,-2.1872,-2.1867,-2.1897,-2.19,-2.1923,-2.1888,-2.1888,-2.1889,0,-2.1702,-2.1718,-2.1751,-2.1766,-2.1774,-2.1789,-2.1806,-2.1822,-2.1836,-2.184,-2.1851,-2.1853,-2.1873,-2.1862,-2.1888,-2.1877,-2.1885,-2.189,-2.1891,-2.1893,-2.1881,-2.1898,-2.193,-2.1933,-2.1894,-2.1894,-2.1893,0,-2.1721,-2.1751,-2.1774,-2.1782,-2.1801,-2.1811,-2.1819,-2.1833,-2.1843,-2.1858,-2.1865,-2.1882,-2.189,-2.1903,-2.1908,-2.1901,-2.1933,-2.1924,-2.1936,-2.1936,-2.1943,-2.1942,-2.1976,-2.195,-2.195,-2.1949,-2.1949,0,-2.1753,-2.1773,-2.1783,-2.1797,-2.1818,-2.1824,-2.1845,-2.1853,-2.1864,-2.1879,-2.188,-2.1894,-2.1901,-2.1915,-2.192,-2.1939,-2.1944,-2.1947,-2.1947,-2.1946,-2.1945,-2.1951,-2.1949,-2.195,-2.195,-2.195,-2.195,0,-2.1778,-2.1786,-2.1811,-2.1826,-2.183,-2.1845,-2.1857,-2.187,-2.1877,-2.1895,-2.19,-2.191,-2.1926,-2.1933,-2.1954,-2.1956,-2.1979,-2.1979,-2.1974,-2.1974,-2.1985,-2.1983,-2.2023,-2.2028,-2.1999,-2.1999,-2.2,0,-2.1797,-2.1812,-2.1829,-2.1838,-2.1847,-2.1863,-2.1873,-2.1879,-2.189,-2.1906,-2.1916,-2.1933,-2.1946,-2.1973,-2.1981,-2.1996,-2.1996,-2.2009,-2.1998,-2.1996,-2.1995,-2.1993,-2.1994,-2.201,-2.2011,-2.2011,-2.2011,0,-2.183,-2.1833,-2.1848,-2.1864,-2.1876,-2.1889,-2.1901,-2.1909,-2.1916,-2.1928,-2.1945,-2.1955,-2.1976,-2.1991,-2.2007,-2.2014,-2.2013,-2.2014,-2.2018,-2.2016,-2.2012,-2.2013,-2.1978,-2.2013,-2.2013,-2.2013,-2.2013,-2.2013,-2.1852,-2.1865,-2.1878,-2.1894,-2.1904,-2.1915,-2.1927,-2.1934,-2.1949,-2.1966,-2.1968,-2.1985,-2.1997,-2.2017,-2.2025,-2.2038,-2.2035,-2.204,-2.2041,-2.2042,-2.2042,-2.201,-2.2041,-2.2041,-2.2041,-2.2041,-2.2041,0,-2.1884,-2.1892,-2.1907,-2.1923,-2.1936,-2.1934,-2.1947,-2.1957,-2.1973,-2.1984,-2.1997,-2.2015,-2.203,-2.2039,-2.2053,-2.2062,-2.2062,-2.2065,-2.2064,-2.2066,-2.2045,-2.204,-2.2065,-2.2065,-2.2065,-2.2065,-2.2065,-2.2065,-2.1902,-2.1922,-2.1926,-2.1951,-2.1958,-2.1976,-2.1983,-2.1993,-2.2001,-2.2022,-2.2034,-2.204,-2.2049,-2.2064,-2.2077,-2.2079,-2.2084,-2.2088,-2.209,-2.207,-2.2068,-2.2065,-2.206,-2.2089,-2.2089,-2.2109,-2.2109,-2.2109]}]]